[[{"header":{"parameterUnit":"m.s-1","parameterCategory":1,"la1":30.2991,"la2":30.254,"lo1":-89.0895,"lo2":-89.0444,"dy":0.0017,"dx":0.0017,"nx":28,"ny":28,"refTime":"2025-04-03T03:00:00:Z","depth":0,"parameterNumber":2,"parameterNumberName":"U-component_of_WINDS"},"data":[0,0,0,0,0,0,0,0,0,0,0,0,0,0,0,0,0,0,0,0,0,0,0,0,0,0,0,0,0,0,0,0,0,0,0,0,0,0,0,0,0,0,0,0,0,0,0,0,0,0,0,0,0,0,0,0,0,0,-5.5655,-5.5656,0,-5.5778,-5.5779,-5.578,-5.5769,-5.5767,-5.5765,-5.5763,-5.5889,-5.5894,-5.5899,0,0,0,0,0,0,0,0,0,0,0,0,0,-5.5411,-5.5416,-5.5655,-5.5656,-5.5658,-5.5777,-5.5779,-5.5781,-5.5769,-5.5767,-5.5765,-5.5763,-5.5887,-5.5893,-5.5899,0,0,0,0,0,0,0,0,0,0,0,0,0,-5.5524,-5.5417,-5.5654,-5.5667,-5.5669,-5.5777,-5.5779,-5.5781,-5.577,-5.5767,-5.5764,-5.5762,-5.5885,-5.5893,-5.59,-5.6004,0,0,-5.5924,-5.5927,0,0,0,0,0,0,0,0,-5.5517,-5.5533,-5.5663,-5.5666,-5.5669,-5.5755,-5.5739,-5.5856,-5.5771,-5.5731,-5.5763,-5.576,-5.5847,-5.5857,-5.5887,-5.601,-5.6016,-5.5924,-5.5929,-5.5932,-5.5934,0,0,0,0,0,0,0,-5.551,-5.5527,-5.5703,-5.5665,-5.5668,-5.5666,-5.5679,-5.5761,-5.5803,-5.5735,-5.5734,-5.5749,-5.5848,-5.5879,-5.5889,-5.6017,-5.5924,-5.5931,-5.5936,-5.5939,-5.6233,-5.6236,0,0,0,0,0,0,-5.5499,-5.5521,-5.5699,-5.5707,-5.5584,-5.5673,-5.5687,-5.573,-5.5803,-5.5811,-5.5751,-5.5748,-5.5868,-5.5881,-5.5894,-5.6019,-5.5932,-5.5939,-5.5944,-5.6229,-5.6233,-5.6237,0,0,0,0,0,0,-5.5494,-5.5515,-5.5694,-5.5614,-5.5637,-5.568,-5.5728,-5.5734,-5.5766,-5.5815,-5.5822,-5.5776,-5.5866,-5.5883,-5.5977,-5.6024,-5.5943,-5.595,-5.6226,-5.6231,-5.6235,-5.6272,0,0,0,0,0,0,-5.5487,-5.5513,-5.5553,-5.5615,-5.5641,-5.5775,-5.5731,-5.5739,-5.5779,-5.5776,-5.584,-5.5848,-5.5865,-5.5966,-5.5985,-5.6033,-5.5956,-5.6222,-5.6228,-5.6233,-5.6266,-5.6277,-5.6286,0,0,0,0,0,-5.5478,-5.5558,-5.5555,-5.5576,-5.5691,-5.5778,-5.5793,-5.5811,-5.5783,-5.5823,-5.5855,-5.5846,-5.6016,-5.5975,-5.5997,-5.6048,-5.6219,-5.6226,-5.6233,-5.6262,-5.6275,-5.6286,0,0,0,0,0,0,-5.55,-5.5566,-5.5563,-5.5666,-5.5716,-5.5776,-5.5827,-5.5824,-5.5884,-5.5878,-5.5898,-5.5913,-5.6007,-5.6038,-5.5991,-5.6152,-5.6114,-5.6125,-5.6128,-5.6141,-5.6151,-5.614,-5.5962,0,0,0,0,0,-5.5517,-5.5581,-5.5636,-5.5721,-5.5747,-5.5783,-5.5821,-5.5831,-5.5884,-5.5905,-5.5944,-5.5996,-5.6061,-5.6103,-5.6166,-5.6272,-5.6285,-5.6318,-5.6328,-5.6336,-5.6345,-5.6402,-5.6417,-5.6261,-5.626,-5.626,0,0,-5.5551,-5.5596,-5.5635,-5.5727,-5.5767,-5.5833,-5.5801,-5.5872,-5.5921,-5.5916,-5.6006,-5.6037,-5.6097,-5.6197,-5.6243,-5.6225,-5.6392,-5.6345,-5.6351,-5.6356,-5.6411,-5.6426,-5.6439,-5.6265,-5.6265,-5.6264,0,0,-5.5649,-5.569,-5.5764,-5.5806,-5.5867,-5.5891,-5.5909,-5.597,-5.599,-5.6081,-5.6078,-5.6138,-5.625,-5.6292,-5.6329,-5.6444,-5.6438,-5.6465,-5.6515,-5.6571,-5.6583,-5.6594,-5.6634,-5.6648,-5.6474,-5.6474,-5.6474,0,-5.5684,-5.5784,-5.5803,-5.5876,-5.5916,-5.5915,-5.5991,-5.603,-5.6109,-5.6137,-5.6116,-5.6257,-5.6297,-5.6407,-5.6435,-5.6465,-5.6486,-5.6455,-5.658,-5.6591,-5.6602,-5.664,-5.6655,-5.6477,-5.6477,-5.6476,-5.6476,0,-5.5823,-5.5893,-5.5946,-5.6022,-5.6069,-5.6143,-5.6174,-5.6219,-5.6226,-5.6252,-5.6345,-5.6394,-5.6466,-5.6494,-5.6501,-5.6605,-5.6591,-5.6576,-5.6536,-5.6619,-5.6655,-5.667,-5.6481,-5.648,-5.6479,-5.6478,0,0,-5.5934,-5.6022,-5.6041,-5.6075,-5.6145,-5.6199,-5.6273,-5.6344,-5.6382,-5.6438,-5.65,-5.6596,-5.6582,-5.6623,-5.6635,-5.6685,-5.6772,-5.6663,-5.6664,-5.6679,-5.6888,-5.6897,-5.6913,-5.6769,-5.6772,-5.6775,-5.6882,0,-5.6037,-5.6167,-5.6188,-5.6303,-5.6367,-5.6369,-5.6434,-5.6483,-5.651,-5.6569,-5.6599,-5.6666,-5.6643,-5.6668,-5.6717,-5.675,-5.6813,-5.6744,-5.6826,-5.6829,-5.6808,-5.6933,-5.6943,-5.7041,-5.6896,-5.6899,-5.69,0,-5.6172,-5.6231,-5.6353,-5.6413,-5.6441,-5.6499,-5.6565,-5.6622,-5.6679,-5.6695,-5.6742,-5.6749,-5.6826,-5.6787,-5.6894,-5.6846,-5.6882,-5.6903,-5.6908,-5.6913,-5.6867,-5.6939,-5.7074,-5.7087,-5.6923,-5.6921,-5.692,0,-5.6239,-5.6349,-5.6435,-5.6465,-5.6539,-5.6579,-5.6612,-5.6666,-5.6707,-5.6766,-5.6793,-5.6861,-5.6898,-5.695,-5.6976,-5.6945,-5.708,-5.7043,-5.7095,-5.7094,-5.7121,-5.7118,-5.726,-5.7149,-5.7148,-5.7148,-5.7148,0,-5.6349,-5.6422,-5.6466,-5.6519,-5.6601,-5.6626,-5.6707,-5.6739,-5.6787,-5.6846,-5.6853,-5.6909,-5.694,-5.7001,-5.7022,-5.7106,-5.7123,-5.7138,-5.7142,-5.7136,-5.7133,-5.7157,-5.715,-5.7152,-5.7151,-5.715,-5.715,0,-5.6435,-5.6467,-5.6561,-5.6624,-5.6641,-5.6699,-5.6753,-5.6804,-5.6832,-5.6907,-5.6926,-5.697,-5.7042,-5.7073,-5.7162,-5.7176,-5.7272,-5.7272,-5.7252,-5.7253,-5.7302,-5.7296,-5.7461,-5.7484,-5.736,-5.7361,-5.7362,0,-5.6502,-5.6558,-5.6627,-5.6667,-5.6701,-5.6766,-5.6808,-5.6835,-5.6879,-5.6949,-5.6992,-5.7064,-5.7122,-5.7237,-5.7277,-5.7344,-5.7345,-5.7399,-5.7355,-5.7347,-5.7343,-5.7338,-5.7343,-5.7405,-5.7406,-5.7407,-5.7408,0,-5.6616,-5.663,-5.669,-5.6757,-5.6808,-5.6862,-5.6915,-5.6948,-5.6983,-5.7033,-5.7106,-5.7152,-5.7242,-5.7313,-5.7384,-5.7418,-5.7419,-5.7422,-5.7437,-5.743,-5.7415,-5.7422,-5.7271,-5.7417,-5.7416,-5.7416,-5.7415,-5.7415,-5.6693,-5.6743,-5.6799,-5.6867,-5.691,-5.696,-5.7011,-5.7046,-5.7107,-5.7182,-5.7196,-5.7273,-5.733,-5.7425,-5.7462,-5.7523,-5.751,-5.7532,-5.7538,-5.7542,-5.7544,-5.7408,-5.7536,-5.7536,-5.7536,-5.7536,-5.7536,0,-5.6806,-5.6842,-5.6905,-5.6978,-5.7032,-5.703,-5.7089,-5.7134,-5.7202,-5.7254,-5.7312,-5.7396,-5.7466,-5.7512,-5.7582,-5.7623,-5.7625,-5.764,-5.7636,-5.7643,-5.7553,-5.7531,-5.7637,-5.7637,-5.7637,-5.7637,-5.7637,-5.7637,-5.687,-5.6955,-5.6975,-5.7081,-5.7118,-5.7193,-5.7227,-5.7273,-5.7315,-5.7409,-5.7466,-5.7496,-5.7546,-5.762,-5.7684,-5.7696,-5.772,-5.7736,-5.7747,-5.766,-5.765,-5.7639,-5.7619,-5.7742,-5.7742,-5.7832,-5.7833,-5.7833]},{"header":{"parameterUnit":"m.s-1","parameterCategory":1,"la1":30.2991,"la2":30.254,"lo1":-89.0895,"lo2":-89.0444,"dy":0.0017,"dx":0.0017,"nx":28,"ny":28,"refTime":"2025-04-03T03:00:00:Z","depth":0,"parameterNumber":3,"parameterNumberName":"V-component_of_WINDS"},"data":[0,0,0,0,0,0,0,0,0,0,0,0,0,0,0,0,0,0,0,0,0,0,0,0,0,0,0,0,0,0,0,0,0,0,0,0,0,0,0,0,0,0,0,0,0,0,0,0,0,0,0,0,0,0,0,0,0,0,4.6981,4.6982,0,4.7125,4.7126,4.7128,4.715,4.7148,4.7147,4.7146,4.7289,4.7294,4.7299,0,0,0,0,0,0,0,0,0,0,0,0,0,4.6723,4.6728,4.698,4.6982,4.6984,4.7124,4.7126,4.7128,4.715,4.7148,4.7147,4.7145,4.7287,4.7293,4.7299,0,0,0,0,0,0,0,0,0,0,0,0,0,4.6847,4.6729,4.698,4.7012,4.7016,4.7124,4.7126,4.7129,4.715,4.7148,4.7146,4.7145,4.7285,4.7293,4.73,4.7385,0,0,4.7323,4.7326,0,0,0,0,0,0,0,0,4.684,4.6857,4.7005,4.701,4.7015,4.7117,4.7088,4.7214,4.7151,4.7099,4.7146,4.7144,4.7233,4.7245,4.7276,4.7392,4.7398,4.7324,4.7328,4.7332,4.7334,0,0,0,0,0,0,0,4.6832,4.6851,4.7037,4.7008,4.7013,4.7019,4.7034,4.7112,4.7175,4.7104,4.7106,4.7123,4.7235,4.7269,4.7279,4.74,4.7324,4.733,4.7335,4.7338,4.7596,4.7598,0,0,0,0,0,0,4.6818,4.6843,4.7033,4.7042,4.6921,4.7025,4.7042,4.7086,4.7174,4.7186,4.7124,4.7123,4.7257,4.7271,4.7285,4.7392,4.7331,4.7339,4.7343,4.7593,4.7596,4.7599,0,0,0,0,0,0,4.6812,4.6834,4.7027,4.6943,4.6968,4.7031,4.7081,4.709,4.7124,4.719,4.7201,4.7147,4.7256,4.7274,4.7361,4.7397,4.7342,4.7349,4.7591,4.7594,4.7597,4.7605,0,0,0,0,0,0,4.6805,4.6832,4.6865,4.6944,4.6973,4.7101,4.7083,4.7094,4.7137,4.7137,4.7214,4.7225,4.7256,4.735,4.7368,4.7406,4.7355,4.7588,4.7592,4.7596,4.7602,4.7609,4.7614,0,0,0,0,0,4.6795,4.686,4.6867,4.6889,4.7015,4.7103,4.712,4.7155,4.714,4.7173,4.7217,4.7222,4.739,4.7358,4.738,4.742,4.7585,4.7591,4.7596,4.7599,4.7608,4.7614,0,0,0,0,0,0,4.6781,4.6871,4.6879,4.6971,4.703,4.7107,4.715,4.7162,4.7225,4.7222,4.7262,4.728,4.7365,4.7401,4.7364,4.7509,4.7486,4.7496,4.7482,4.749,4.7496,4.7485,4.7361,0,0,0,0,0,4.6789,4.6854,4.6928,4.7003,4.7032,4.7086,4.7126,4.7149,4.721,4.7234,4.7284,4.7342,4.7409,4.7451,4.7516,4.7608,4.7626,4.7647,4.7653,4.7657,4.7665,4.772,4.773,4.7616,4.7616,4.7616,0,0,4.6806,4.6863,4.6901,4.7001,4.7049,4.7116,4.7107,4.7176,4.7226,4.7244,4.7331,4.7369,4.7437,4.7528,4.757,4.7561,4.7701,4.7664,4.7667,4.7673,4.7726,4.7737,4.7746,4.762,4.7619,4.7618,0,0,4.687,4.6919,4.6988,4.7037,4.7111,4.7147,4.7164,4.724,4.7267,4.7355,4.7371,4.743,4.7543,4.7592,4.7632,4.7719,4.7727,4.7739,4.777,4.7823,4.7832,4.784,4.7873,4.7884,4.7746,4.7746,4.7746,0,4.6881,4.6982,4.7021,4.7092,4.7136,4.7159,4.7229,4.7275,4.7365,4.7395,4.7384,4.7528,4.7576,4.7679,4.7701,4.7732,4.7753,4.773,4.7827,4.7836,4.7844,4.7876,4.7888,4.7747,4.7747,4.7747,4.7747,0,4.6993,4.7063,4.711,4.7199,4.7249,4.7319,4.7369,4.7414,4.7434,4.7471,4.7561,4.7619,4.7698,4.7724,4.7742,4.7831,4.7824,4.7819,4.7798,4.7856,4.7886,4.7898,4.7749,4.7748,4.7748,4.7748,0,0,4.705,4.7163,4.718,4.7222,4.7307,4.7362,4.7434,4.7512,4.7551,4.7614,4.7675,4.7772,4.777,4.7815,4.7839,4.7885,4.7953,4.7876,4.7878,4.7889,4.8058,4.8061,4.8074,4.796,4.7962,4.7964,4.8053,0,4.7125,4.7255,4.7294,4.7403,4.747,4.7494,4.7556,4.7615,4.7653,4.7715,4.7756,4.7825,4.7816,4.7844,4.789,4.7935,4.7988,4.7929,4.8018,4.802,4.8,4.809,4.8093,4.8173,4.8064,4.8066,4.8068,0,4.723,4.7297,4.7414,4.7493,4.7523,4.7578,4.7655,4.7714,4.7782,4.7806,4.7859,4.788,4.7956,4.7931,4.8037,4.7997,4.8036,4.8063,4.8068,4.8077,4.8048,4.8103,4.82,4.8212,4.8087,4.8085,4.8084,0,4.7262,4.7382,4.7468,4.7503,4.7597,4.7636,4.7677,4.7744,4.779,4.7856,4.7887,4.7961,4.8001,4.8058,4.81,4.8077,4.8203,4.8181,4.8226,4.8225,4.8251,4.8249,4.8356,4.8275,4.8275,4.8274,4.8274,0,4.7343,4.7413,4.7484,4.7537,4.7617,4.7662,4.774,4.7782,4.7841,4.7903,4.7927,4.7985,4.8035,4.8099,4.8132,4.8216,4.8234,4.8256,4.8264,4.8254,4.8252,4.828,4.8276,4.8278,4.8277,4.8276,4.8276,0,4.7392,4.7442,4.7538,4.7621,4.7643,4.7699,4.777,4.7822,4.7862,4.794,4.7961,4.8023,4.81,4.8148,4.8244,4.8266,4.836,4.8365,4.8337,4.8341,4.8385,4.838,4.8514,4.8535,4.8439,4.8439,4.844,0,4.744,4.7496,4.7586,4.763,4.7672,4.7742,4.779,4.7836,4.7885,4.7969,4.8012,4.8091,4.8157,4.8279,4.8332,4.8407,4.8415,4.8457,4.8426,4.8416,4.8418,4.8414,4.8421,4.8462,4.8463,4.8464,4.8464,0,4.7521,4.7545,4.7613,4.7692,4.7749,4.7812,4.7876,4.791,4.7967,4.8021,4.8102,4.8153,4.8254,4.8333,4.8413,4.8455,4.847,4.8474,4.8489,4.8479,4.8462,4.8474,4.8353,4.847,4.847,4.8469,4.8469,4.8469,4.7573,4.7624,4.7697,4.7773,4.7827,4.7886,4.7941,4.7989,4.8057,4.8144,4.8167,4.8252,4.8321,4.8431,4.8475,4.8542,4.8535,4.8556,4.8562,4.8566,4.8568,4.8451,4.8556,4.8556,4.8556,4.8556,4.8556,0,4.7657,4.7705,4.7775,4.7865,4.7926,4.7936,4.8008,4.8058,4.8132,4.8196,4.8262,4.8356,4.8433,4.8494,4.8574,4.8616,4.8625,4.8635,4.8633,4.8643,4.8569,4.8549,4.8627,4.8627,4.8627,4.8627,4.8627,4.8627,4.7707,4.7796,4.7828,4.7944,4.7992,4.8077,4.8117,4.8173,4.8224,4.8328,4.8394,4.8434,4.8497,4.8582,4.8654,4.867,4.8699,4.8708,4.8726,4.8655,4.8647,4.864,4.8622,4.8714,4.8714,4.8794,4.8795,4.8796]}]]